CZ-4C DEB

Satellite information

Favourite Embed

Satellite Type and Status

DEBRISIN ORBIT

Key statistics

Satellite CZ-4C DEB at a glance.

Uptime

2656

Days in orbit

Revolutions

≈ 14.9

Per day

Orbit

SSO

Sun Synchronous Orbit

Inclination

97.8

Latest

Satellite identification and parameters

Extended collection of information and parameters for CZ-4C DEB.

Object identification

Identified? True

Debris? True

Object name: CZ-4C DEB

International designator: 2018-031K

Object number (NORAD): 44616

Object ID (CCSDS): 44616

Country: PEOPLES REPUBLIC OF CHINA (PRC)

Current information (Y/N): Y

RCS size: SMALL

Orbital parameters

Period: 96.491 minutes

Inclination: 97.8222 deg

SMA: 6968.674 km

Apoapsis: 594.814 km

Periapsis: 586.264 km

RAAN: 260.7075 deg

Eccentricy: 0.0006134

Argument of periapsis: 42.3291 deg

Mean anomaly: 317.84 deg

Mean motion: 14.92373552 rev/day

Mean motion (dot): 0.00003307 rev/day2

B* drag term: 0.00032861 1/REarth

Two-line elements (TLE)

Creation date: June 28, 2025, 5:41 p.m.

Reference frame: TEME

Reference center: EARTH

Epoch: June 27, 2025, 11:23 p.m. UTC

TLE line 0: 0 CZ-4C DEB

TLE line 1: 1 44616U 18031K 25178.97489631 .00003307 00000-0 32861-3 0 9990

TLE line 2: 2 44616 97.8222 260.7075 0006134 42.3291 317.8400 14.92373552373316

Live tracking on map

Real-time ground track for satellite CZ-4C DEB.

In-orbit conjunctions

A list of the most updated potential collisions computed for object CZ-4C DEB.

Target Orbit TCA Probability of collision Miss distance Type
SAUDISAT 1A LEO 2024-11-27 18:13:47 0.0003564212 370.0 (m) PAYLOAD

Associated space launch

Gaofen is a series of Chinese civilian Earth observation satellites. These three satellites are to be operated together with the Gaofen-1 satellite, which was launched in 2013.

CZ-4C DEB was lifted into orbit during the mission ‘Long March 4C | Gaofen 1-02, 1-03 & 1-04’, on board a Long March 4C space rocket.

The launch took place on March 31, 2018, 3:22 a.m. from Launch Complex 9.

For more information about the launch, click the button.

Launch to space Long March 4C | Gaofen 1-02, 1-03 & 1-04
Long March 4C | Gaofen 1-02, 1-03 & 1-04

Agency: N/A

Status: Launch Successful

Launch date: March 31, 2018, 3:22 a.m. UTC

Rocket: Long March 4C

Launch pad: Launch Complex 9

Location: Taiyuan Satellite Launch Center, People's Republic of China

...

Latest news about this satellite

There are no fresh news available about this satellite. Check back as we update our databases every day.


Newsletter sign-up

Weekly statistics, charts and insights to help you stay on top of the space industry.